Regional Weather Roundup
Issued by NWS

Home | Current Version | Previous Version | Text Only | Print | Product List | Glossary Off
Versions: 1 2 3 4 5 6 7 8 9 10 11 12 13 14 15 16 17 18 19 20 21 22 23 24 25 26 27 28 29 30 31 32 33 34 35 36 37 38 39 40 41 42 43 44 45 46 47 48 49 50

000
ASUS43 KIND 200859
RWRIN

WEATHER ROUNDUP FOR INDIANA
NATIONAL WEATHER SERVICE INDIANAPOLIS IN
500 AM EDT FRI OCT 20 2017

NOTE: "FAIR" INDICATES FEW OR NO CLOUDS BELOW 12,000 FEET WITH NO
SIGNIFICANT WEATHER AND/OR OBSTRUCTIONS TO VISIBILITY.

* - STATION DOES NOT REPORT WEATHER SUCH AS PRECIPITATION OR FOG.

+ - STATION NOT QUALITY CONTROLLED BY THE NATIONAL WEATHER SERVICE.
    USE DATA WITH CAUTION...ESPECIALLY DEWPOINT AND RELATIVE
    HUMIDITY OBSERVATIONS.

INZ001>003-010>013-019-020-201000-
NORTHWEST INDIANA

CITY           SKY/WX    TMP DP  RH WIND       PRES   REMARKS
KNOX *+        FAIR      46  43  87 S3        30.19S
MONTICELLO +   FAIR      52  51  95 S3        30.19S
RENSSELAER +   FAIR      50  43  76 CALM      30.19S

$$

LMZ046-743>745-201000-
SOUTHERN LAKE MICHIGAN

STATION/POSITION TIME  TEMP    WIND        PRES    WAVE
                       AIR SEA DIR/SP/G            HT
                 (UTC) (F)     (DEG/KT/KT) (MB)    (FT)
BURNS HARBOR     0840   58     180/ 10/ 15 1022.0R
MICHIGAN CITY    0830   58     150/ 15/ 17   N/A
5NW MICH CITY    0850   57 58  180/ 12/ 14   N/A     1

$$

INZ004-005-014>016-021>024-201000-
NORTH CENTRAL INDIANA

CITY           SKY/WX    TMP DP  RH WIND       PRES   REMARKS
GOSHEN         FAIR      44  38  79 CALM      30.21S
PERU/GRISSOM   FAIR      51  49  94 SE3       30.21S
SOUTH BEND     FAIR      48  38  68 SE3       30.20S

$$

INZ006>009-017-018-025>027-201000-
NORTHEAST INDIANA

CITY           SKY/WX    TMP DP  RH WIND       PRES   REMARKS
FORT WAYNE     FAIR      45  41  86 CALM      30.23S
KENDALLVILLE + FAIR      44  38  78 CALM      30.22F

$$

INZ028-029-035-036-043>045-051>053-201000-
WEST CENTRAL INDIANA

CITY           SKY/WX    TMP DP  RH WIND       PRES   REMARKS
LAFAYETTE      FAIR      50  50 100 CALM      30.20S
TERRE HAUTE    FAIR      48  46  93 CALM      30.22S

$$

INZ030>032-037>040-046>048-054>057-064-065-201000-
CENTRAL INDIANA

CITY           SKY/WX    TMP DP  RH WIND       PRES   REMARKS
GREENWOOD *+   FAIR      51  49  93 CALM      30.24R
INDIANAPOLIS   FAIR      53  50  89 CALM      30.23S
-EAGLE CREEK   FOG       49  47  93 CALM      30.22S VSB 1/4
KOKOMO +       FAIR      48  46  93 SE5       30.23R
MT COMFORT *+  FAIR      48  48 100 CALM      30.24R
SHELBYVILLE    FAIR      47  43  86 SE3       30.23S

$$

INZ033-034-041-042-049-050-058-059-201000-
EAST CENTRAL INDIANA

CITY           SKY/WX    TMP DP  RH WIND       PRES   REMARKS
MUNCIE         FAIR      48  45  89 S3        30.23S
RICHMOND +     FAIR      45  45 100 CALM      30.26R

$$

INZ060-061-067>069-081>083-085>088-201000-
SOUTHWEST INDIANA

CITY           SKY/WX    TMP DP  RH WIND       PRES   REMARKS
EVANSVILLE     FOG       49  47  93 CALM      30.24R VSB 1/2
HUNTINGBURG +  FAIR      50  49  96 S3        30.24S

$$

INZ062-063-066-070>080-084-089>092-201000-
SOUTH CENTRAL AND SOUTHEAST INDIANA

CITY           SKY/WX    TMP DP  RH WIND       PRES   REMARKS
BLOOMINGTON    FAIR      48  45  89 CALM      30.23S
MADISON *+       N/A     46  45  93 CALM      30.27R VSB 1/4
SEYMOUR +      FOG       45  43  93 CALM      30.25R VSB 1/4

$$





USA.gov is the U.S. government's official web portal to all federal, state and local government web resources and services.